TimeHST,TemperatureF,Dew PointF,Humidity,Sea Level PressureIn,VisibilityMPH,Wind Direction,Wind SpeedMPH,Gust SpeedMPH,PrecipitationIn,Events,Conditions,WindDirDegrees,DateUTC
12:54 AM,66.9,66.0,97,29.92,10.0,North,3.5,-,N/A,,Clear,10,2013-10-19 10:54:00
1:54 AM,68.0,68.0,100,29.90,10.0,NNW,5.8,-,N/A,,Partly Cloudy,340,2013-10-19 11:54:00
2:54 AM,66.0,66.0,100,29.88,10.0,NNW,5.8,-,N/A,,Clear,340,2013-10-19 12:54:00
3:54 AM,-9999,-9999,N/A,29.87,10.0,Calm,Calm,-,N/A,,Clear,0,2013-10-19 13:54:00
4:54 AM,-9999,-9999,N/A,29.87,10.0,Calm,Calm,-,N/A,,Clear,0,2013-10-19 14:54:00
5:54 AM,-9999,-9999,N/A,29.89,10.0,Calm,Calm,-,N/A,,Clear,0,2013-10-19 15:54:00
6:54 AM,-9999,-9999,N/A,29.90,10.0,Calm,Calm,-,N/A,,Clear,0,2013-10-19 16:54:00
7:54 AM,75.0,71.1,87,29.92,10.0,Calm,Calm,-,N/A,,Clear,0,2013-10-19 17:54:00
8:54 AM,78.1,69.1,74,29.93,10.0,West,4.6,-,N/A,,Partly Cloudy,280,2013-10-19 18:54:00
9:54 AM,82.0,66.0,58,29.93,10.0,Variable,3.5,-,N/A,,Partly Cloudy,0,2013-10-19 19:54:00
10:54 AM,80.1,69.1,69,29.92,10.0,Variable,5.8,-,N/A,,Partly Cloudy,0,2013-10-19 20:54:00
11:54 AM,82.9,68.0,60,29.90,10.0,NNW,9.2,-,N/A,,Scattered Clouds,340,2013-10-19 21:54:00
12:54 PM,81.0,68.0,65,29.88,10.0,North,8.1,-,N/A,,Scattered Clouds,350,2013-10-19 22:54:00
1:54 PM,80.1,66.9,64,29.87,10.0,NNW,11.5,-,N/A,,Scattered Clouds,330,2013-10-19 23:54:00
2:54 PM,82.0,66.9,60,29.86,10.0,NW,15.0,19.6,N/A,,Partly Cloudy,310,2013-10-20 00:54:00
3:54 PM,81.0,66.9,62,29.86,10.0,NNW,12.7,-,N/A,,Clear,330,2013-10-20 01:54:00
4:54 PM,79.0,66.9,66,29.87,10.0,NW,10.4,-,N/A,,Partly Cloudy,310,2013-10-20 02:54:00
5:54 PM,75.9,69.1,79,29.89,10.0,NW,6.9,-,N/A,,Clear,320,2013-10-20 03:54:00
6:54 PM,72.0,66.9,84,29.90,10.0,Calm,Calm,-,N/A,,Clear,0,2013-10-20 04:54:00
7:54 PM,69.1,64.9,87,29.93,10.0,WNW,3.5,-,N/A,,Clear,300,2013-10-20 05:54:00
8:54 PM,70.0,64.9,84,29.94,10.0,Calm,Calm,-,N/A,,Clear,0,2013-10-20 06:54:00
9:54 PM,69.1,64.9,87,29.94,10.0,NW,3.5,-,N/A,,Scattered Clouds,320,2013-10-20 07:54:00
10:54 PM,71.1,66.0,84,29.94,10.0,Calm,Calm,-,N/A,,Mostly Cloudy,0,2013-10-20 08:54:00
11:54 PM,73.0,66.9,81,29.93,10.0,Calm,Calm,-,N/A,,Overcast,0,2013-10-20 09:54:00